RYR30GY EGPH-LHBP

Flight info

Callsign RYR30GY
Flight time N/A
Altitude 37000
Route TLA Y96 OTBUN DCT ERKIT N110 DOLAS DCT NAVPI DCT NIGUG DCT ONUNE DCT BADGO DCT SWALM DCT VELIS DCT OKG DCT LOMKI DCT PEPIK DCT NIT/N0414F230 M748 ARFOX
Aircraft B38M/M-SDE1FGHILORVWXY/HB1

Departure

Time 2026-04-26 08:46
Airport Edinburgh Airport (EGPH)

Arrival

Time N/A
Airport Budapest Liszt Ferenc International Airport (LHBP)
Time Latitude Longitude Altitude Speed Heading
2026-04-26 08:12 55.94713 -3.35361 119 ft 0 kts 208°
2026-04-26 08:35 55.94730 -3.35343 115 ft 3 kts 208°
2026-04-26 08:36 55.94747 -3.35321 117 ft 4 kts 239°
2026-04-26 08:36 55.94752 -3.35279 116 ft 4 kts 283°
2026-04-26 08:36 55.94747 -3.35256 115 ft 0 kts 298°
2026-04-26 08:40 55.94748 -3.35257 119 ft 1 kts 298°
2026-04-26 08:40 55.94757 -3.35288 117 ft 7 kts 298°
2026-04-26 08:40 55.94796 -3.35414 118 ft 16 kts 299°
2026-04-26 08:41 55.94848 -3.35584 117 ft 16 kts 298°
2026-04-26 08:41 55.94905 -3.35768 118 ft 15 kts 299°
2026-04-26 08:41 55.94985 -3.35856 118 ft 14 kts 14°
2026-04-26 08:41 55.95079 -3.35791 119 ft 14 kts 346°
2026-04-26 08:42 55.95124 -3.35877 116 ft 10 kts 297°
2026-04-26 08:42 55.95174 -3.35952 115 ft 10 kts 331°
2026-04-26 08:42 55.95239 -3.35962 116 ft 9 kts 36°
2026-04-26 08:42 55.95275 -3.35864 117 ft 11 kts 58°
2026-04-26 08:43 55.95321 -3.35730 117 ft 14 kts 59°
2026-04-26 08:43 55.95377 -3.35561 118 ft 17 kts 58°
2026-04-26 08:43 55.95427 -3.35426 115 ft 12 kts 41°
2026-04-26 08:43 55.95493 -3.35432 118 ft 0 kts 330°
2026-04-26 08:44 55.95494 -3.35432 118 ft 0 kts 330°
2026-04-26 08:44 55.95504 -3.35443 115 ft 5 kts 329°
2026-04-26 08:44 55.95562 -3.35510 112 ft 11 kts 316°
2026-04-26 08:45 55.95558 -3.35602 112 ft 0 kts 241°
2026-04-26 08:45 55.95440 -3.35956 112 ft 77 kts 238°
2026-04-26 08:45 55.95026 -3.37174 112 ft 151 kts 239°
2026-04-26 08:46 55.94408 -3.38996 437 ft 187 kts 237°
2026-04-26 08:46 55.93700 -3.41005 1486 ft 184 kts 238°
2026-04-26 08:46 55.93039 -3.42944 2495 ft 190 kts 237°
2026-04-26 08:46 55.92318 -3.45039 2963 ft 211 kts 237°
2026-04-26 08:47 55.91498 -3.47412 3461 ft 231 kts 238°
2026-04-26 08:47 55.90654 -3.49857 4308 ft 231 kts 239°
2026-04-26 08:47 55.89849 -3.52310 5128 ft 234 kts 240°
2026-04-26 08:47 55.89021 -3.54844 5772 ft 239 kts 239°
2026-04-26 08:48 55.88119 -3.57325 5877 ft 238 kts 228°
2026-04-26 08:48 55.86774 -3.59020 5943 ft 240 kts 203°
2026-04-26 08:48 55.85136 -3.59551 5922 ft 246 kts 179°
2026-04-26 08:48 55.83423 -3.58800 5954 ft 262 kts 156°
2026-04-26 08:49 55.81965 -3.56821 5976 ft 270 kts 131°
2026-04-26 08:49 55.81018 -3.53917 5999 ft 275 kts 118°
2026-04-26 08:49 55.79865 -3.51278 5973 ft 271 kts 149°
2026-04-26 08:49 55.78112 -3.50247 6483 ft 266 kts 172°
2026-04-26 08:50 55.76304 -3.49462 7444 ft 269 kts 167°
2026-04-26 08:50 55.74488 -3.48528 8344 ft 274 kts 166°
2026-04-26 08:50 55.72655 -3.47564 9273 ft 276 kts 166°
2026-04-26 08:50 55.70805 -3.46577 10226 ft 279 kts 166°
2026-04-26 08:51 55.67064 -3.44558 11843 ft 287 kts 166°
2026-04-26 08:51 55.65144 -3.43517 12680 ft 291 kts 166°
2026-04-26 08:51 55.63186 -3.42455 13514 ft 295 kts 166°
2026-04-26 08:52 55.61192 -3.41376 14130 ft 307 kts 166°
2026-04-26 08:52 55.59085 -3.40225 14442 ft 327 kts 164°
2026-04-26 08:52 55.57004 -3.38255 14711 ft 353 kts 142°
2026-04-26 08:52 55.55252 -3.35063 15104 ft 369 kts 136°
2026-04-26 08:53 55.53433 -3.31776 15679 ft 376 kts 137°
2026-04-26 08:53 55.51579 -3.28484 16400 ft 380 kts 138°
2026-04-26 08:53 55.49692 -3.25170 17059 ft 385 kts 138°
2026-04-26 08:53 55.47785 -3.21844 17714 ft 389 kts 138°
2026-04-26 08:54 55.45867 -3.18510 18299 ft 395 kts 139°
2026-04-26 08:54 55.43870 -3.15045 18894 ft 400 kts 139°
2026-04-26 08:54 55.41905 -3.11641 19465 ft 403 kts 139°
2026-04-26 08:54 55.39899 -3.08172 20030 ft 407 kts 139°
2026-04-26 08:55 55.37871 -3.04670 20592 ft 410 kts 139°
2026-04-26 08:55 55.35822 -3.01138 21147 ft 414 kts 139°
2026-04-26 08:55 55.33755 -2.97580 21699 ft 418 kts 139°
2026-04-26 08:55 55.31663 -2.93985 22238 ft 421 kts 139°
2026-04-26 08:56 55.29560 -2.90377 22773 ft 425 kts 139°
2026-04-26 08:56 55.28129 -2.87924 23127 ft 427 kts 139°
2026-04-26 08:56 55.25286 -2.83061 23816 ft 432 kts 139°
2026-04-26 08:56 55.23130 -2.79378 24202 ft 435 kts 139°
2026-04-26 08:57 55.20951 -2.75662 24628 ft 439 kts 139°
2026-04-26 08:57 55.18750 -2.71915 25067 ft 441 kts 139°
2026-04-26 08:57 55.16544 -2.68166 25509 ft 443 kts 139°
2026-04-26 08:57 55.14326 -2.64402 25902 ft 447 kts 139°
2026-04-26 08:58 55.12084 -2.60604 26306 ft 450 kts 139°
2026-04-26 08:58 55.09828 -2.56789 26707 ft 453 kts 139°
2026-04-26 08:58 55.07556 -2.52953 27094 ft 456 kts 139°
2026-04-26 08:58 55.05299 -2.49148 27477 ft 459 kts 139°
2026-04-26 08:59 55.02959 -2.45209 27861 ft 461 kts 139°
2026-04-26 08:59 55.00667 -2.41359 28234 ft 464 kts 139°
2026-04-26 08:59 54.98302 -2.37393 28587 ft 467 kts 139°
2026-04-26 08:59 54.95987 -2.33516 28910 ft 471 kts 139°
2026-04-26 09:00 54.93617 -2.29557 29258 ft 474 kts 140°
2026-04-26 09:00 54.91232 -2.25574 29631 ft 476 kts 140°
2026-04-26 09:00 54.88831 -2.21576 29974 ft 479 kts 140°
2026-04-26 09:00 54.86415 -2.17558 30327 ft 482 kts 140°
2026-04-26 09:01 54.83986 -2.13526 30658 ft 484 kts 139°
2026-04-26 09:01 54.81557 -2.09501 30995 ft 485 kts 139°
2026-04-26 09:01 54.79110 -2.05454 31276 ft 487 kts 139°
2026-04-26 09:01 54.76657 -2.01402 31682 ft 486 kts 139°
2026-04-26 09:02 54.74210 -1.97368 32110 ft 485 kts 140°
2026-04-26 09:02 54.71757 -1.93329 32454 ft 485 kts 140°
2026-04-26 09:02 54.69315 -1.89317 32790 ft 486 kts 140°
2026-04-26 09:02 54.66867 -1.85301 33213 ft 484 kts 140°
2026-04-26 09:03 54.64422 -1.81300 33614 ft 483 kts 140°
2026-04-26 09:03 54.62016 -1.77366 34009 ft 482 kts 140°
2026-04-26 09:03 54.59579 -1.73391 34400 ft 481 kts 140°
2026-04-26 09:03 54.57145 -1.69426 34731 ft 480 kts 140°
2026-04-26 09:04 54.54716 -1.65478 35054 ft 480 kts 140°
2026-04-26 09:04 54.52294 -1.61547 35379 ft 479 kts 140°
2026-04-26 09:04 54.49863 -1.57608 35673 ft 478 kts 140°
2026-04-26 09:04 54.47444 -1.53695 35935 ft 478 kts 140°
2026-04-26 09:05 54.45017 -1.49778 36220 ft 478 kts 140°
2026-04-26 09:05 54.42593 -1.45870 36509 ft 477 kts 140°
2026-04-26 09:05 54.40168 -1.41968 36788 ft 477 kts 140°
2026-04-26 09:05 54.37752 -1.38087 37054 ft 476 kts 140°
2026-04-26 09:06 54.35331 -1.34206 37316 ft 476 kts 139°
2026-04-26 09:06 54.30485 -1.26456 37336 ft 475 kts 140°
2026-04-26 09:07 54.25682 -1.18800 37359 ft 475 kts 140°
2026-04-26 09:07 54.20843 -1.11112 37346 ft 475 kts 140°
2026-04-26 09:08 54.15994 -1.03434 37350 ft 475 kts 139°
2026-04-26 09:08 54.11142 -0.95777 37361 ft 475 kts 140°
2026-04-26 09:09 54.06283 -0.88135 37358 ft 475 kts 140°
2026-04-26 09:09 54.02154 -0.82020 37354 ft 472 kts 148°
2026-04-26 09:10 53.96755 -0.75664 37346 ft 472 kts 148°
2026-04-26 09:10 53.90463 -0.68288 37352 ft 472 kts 148°
2026-04-26 09:11 53.85934 -0.63002 37373 ft 472 kts 148°